FW8707 Weather Reports


Display with metric or nautical units.
time (UTC)temp
F
wind
direction
speed
MPH
gust
MPH
rain 1hr
in
rain 24hr
in
rain mn
in
humidity
%
barometer
mb
20260903042520 67 279 2.0 4.0 0.00 0.00 0.00 62 1017.0
20260903042019 67 279 2.0 4.0 0.00 0.00 0.00 62 1017.0
20260903041544 68 279 2.0 4.0 0.00 0.00 0.00 61 1017.2
20260903041003 68 286 1.0 4.0 0.00 0.00 0.00 60 1017.3
20260903040505 68 287 0.0 4.0 0.00 0.00 0.00 59 1017.1
20260903040009 69 287 0.0 2.0 0.00 0.00 0.00 57 1017.3
20260903035503 69 280 0.0 0.0 0.00 0.00 0.00 56 1017.0
20260903035005 70 281 0.0 0.0 0.00 0.00 0.00 55 1016.8
20260903034507 70 280 0.0 0.0 0.00 0.00 0.00 55 1016.8
20260903034007 70 281 0.0 0.0 0.00 0.00 0.00 54 1016.8
20260903033505 71 281 0.0 0.0 0.00 0.00 0.00 53 1016.8
20260903033009 71 279 0.0 0.0 0.00 0.00 0.00 52 1016.8
20260903032507 71 279 0.0 0.0 0.00 0.00 0.00 51 1016.6
20260903032008 71 279 0.0 1.0 0.00 0.00 0.00 51 1016.5
20260903031512 72 279 0.0 1.0 0.00 0.00 0.00 50 1016.4
20260903031007 72 279 0.0 2.0 0.00 0.00 0.00 50 1016.5
20260903030510 72 279 0.0 4.0 0.00 0.00 0.00 49 1016.6
20260903030012 72 279 1.0 5.0 0.00 0.00 0.00 49 1016.7
20260903025510 72 279 1.0 5.0 0.00 0.00 0.00 49 1016.6
20260903025006 72 279 3.0 5.0 0.00 0.00 0.00 49 1016.7
20260903024511 72 279 1.0 4.0 0.00 0.00 0.00 50 1016.6
20260903024011 72 270 1.0 2.0 0.00 0.00 0.00 51 1016.4
20260903023508 73 270 0.0 2.0 0.00 0.00 0.00 52 1016.2
20260903023014 73 270 0.0 2.0 0.00 0.00 0.00 53 1016.4
20260903022508 73 270 0.0 2.0 0.00 0.00 0.00 54 1016.5
20260903022005 73 270 0.0 4.0 0.00 0.00 0.00 51 1016.7
20260903021514 73 270 1.0 4.0 0.00 0.00 0.00 51 1016.7
20260903021007 73 270 0.0 5.0 0.00 0.00 0.00 51 1016.6
20260903020508 73 270 1.0 5.0 0.00 0.00 0.00 50 1016.4
20260903020037 73 270 0.0 4.0 0.00 0.00 0.00 50 1016.4
20260903015506 73 270 1.0 4.0 0.00 0.00 0.00 51 1016.7
20260903015006 74 270 0.0 3.0 0.00 0.00 0.00 50 1016.4
20260903014513 74 270 1.0 3.0 0.00 0.00 0.00 50 1016.4
20260903014008 74 282 0.0 4.0 0.00 0.00 0.00 49 1016.3
20260903013508 74 279 0.0 4.0 0.00 0.00 0.00 48 1016.4
20260903013013 75 283 0.0 5.0 0.00 0.00 0.00 48 1016.2
20260903012508 75 282 1.0 5.0 0.00 0.00 0.00 47 1016.2
20260903012007 76 282 0.0 4.0 0.00 0.00 0.00 47 1016.3
20260903011511 76 282 1.0 5.0 0.00 0.00 0.00 46 1016.3
20260903011008 77 282 1.0 7.0 0.00 0.00 0.00 45 1016.3
20260903010511 77 286 2.0 8.0 0.00 0.00 0.00 44 1016.3
20260903010011 78 281 3.0 8.0 0.00 0.00 0.00 42 1016.3
20260903005508 79 40 1.0 5.0 0.00 0.00 0.00 40 1016.2
20260903005013 80 314 0.0 4.0 0.00 0.00 0.00 37 1016.1
20260903004513 80 298 1.0 4.0 0.00 0.00 0.00 36 1016.1
20260903004008 80 154 1.0 8.0 0.00 0.00 0.00 37 1016.0
20260903003509 80 289 1.0 8.0 0.00 0.00 0.00 37 1016.0
20260903003012 80 325 0.0 5.0 0.00 0.00 0.00 36 1015.9
20260903002512 80 283 1.0 5.0 0.00 0.00 0.00 36 1016.0
20260903002012 80 275 1.0 4.0 0.00 0.00 0.00 37 1016.1
20260903001512 80 285 0.0 6.0 0.00 0.00 0.00 39 1016.1
20260903001008 80 231 1.0 6.0 0.00 0.00 0.00 39 1016.1
20260903000508 79 25 2.0 7.0 0.00 0.00 0.00 38 1016.1
20260903000012 79 282 2.0 7.0 0.00 0.00 0.00 40 1016.2
20260902235508 79 327 1.0 8.0 0.00 0.00 0.00 40 1016.4
20260902235008 79 288 3.0 10.0 0.00 0.00 0.00 40 1016.7
20260902234513 78 279 4.0 16.0 0.00 0.00 0.00 39 1016.7
20260902234013 78 281 3.0 16.0 0.00 0.00 0.00 41 1016.7
20260902233508 78 281 5.0 12.0 0.00 0.00 0.00 40 1016.7
20260902233016 78 270 5.0 17.0 0.00 0.00 0.00 42 1016.7
20260902232509 78 289 3.0 17.0 0.00 0.00 0.00 42 1016.5
20260902232007 79 287 9.0 21.0 0.00 0.00 0.00 40 1016.4
20260902231513 80 279 11.0 21.0 0.00 0.00 0.00 38 1016.3
20260902231009 81 279 9.0 18.0 0.00 0.00 0.00 36 1015.9
20260902230509 83 287 8.0 14.0 0.00 0.00 0.00 38 1016.2
20260902230016 86 165 3.0 8.0 0.00 0.00 0.00 27 1016.2
20260902225508 86 177 0.0 3.0 0.00 0.00 0.00 27 1015.6
20260902225008 87 193 0.0 3.0 0.00 0.00 0.00 26 1015.5
20260902224516 87 141 1.0 4.0 0.00 0.00 0.00 25 1015.1
20260902224012 88 270 1.0 8.0 0.00 0.00 0.00 26 1015.1
20260902223511 89 204 1.0 8.0 0.00 0.00 0.00 25 1015.1
20260902223016 90 191 2.0 8.0 0.00 0.00 0.00 24 1015.1
20260902222511 90 70 2.0 8.0 0.00 0.00 0.00 24 1014.9
20260902222011 90 262 1.0 7.0 0.00 0.00 0.00 25 1014.9
20260902221532 89 79 3.0 8.0 0.00 0.00 0.00 24 1015.0
20260902221004 89 179 2.0 9.0 0.00 0.00 0.00 27 1015.0
20260902220504 89 202 3.0 9.0 0.00 0.00 0.00 25 1015.0
20260902220008 89 315 1.0 6.0 0.00 0.00 0.00 25 1015.1
20260902215509 89 85 2.0 7.0 0.00 0.00 0.00 26 1015.1
20260902215007 89 38 2.0 7.0 0.00 0.00 0.00 26 1015.2
20260902214511 88 292 1.0 4.0 0.00 0.00 0.00 25 1015.3
20260902214009 88 192 2.0 6.0 0.00 0.00 0.00 25 1015.3
20260902213511 89 62 0.0 7.0 0.00 0.00 0.00 25 1015.3
20260902213018 90 225 3.0 9.0 0.00 0.00 0.00 25 1015.4
20260902212512 90 221 3.0 9.0 0.00 0.00 0.00 24 1015.4
20260902212011 90 346 1.0 7.0 0.00 0.00 0.00 24 1015.5
20260902211519 90 131 1.0 8.0 0.00 0.00 0.00 25 1015.7
20260902211011 89 209 3.0 8.0 0.00 0.00 0.00 27 1015.7
20260902210513 89 61 3.0 12.0 0.00 0.00 0.00 24 1015.7
20260902210017 89 238 5.0 12.0 0.00 0.00 0.00 25 1015.7
20260902205505 89 300 2.0 10.0 0.00 0.00 0.00 24 1015.9
20260902205007 90 350 1.0 10.0 0.00 0.00 0.00 24 1016.0
20260902204510 90 171 3.0 10.0 0.00 0.00 0.00 23 1016.1
20260902204007 91 135 4.0 10.0 0.00 0.00 0.00 24 1016.2
20260902203509 92 237 1.0 9.0 0.00 0.00 0.00 25 1016.2
20260902203018 92 168 4.0 9.0 0.00 0.00 0.00 23 1016.4
20260902202509 92 201 2.0 8.0 0.00 0.00 0.00 23 1016.5
20260902202013 91 213 1.0 11.0 0.00 0.00 0.00 24 1016.6
20260902201518 91 231 3.0 11.0 0.00 0.00 0.00 23 1016.6
20260902201016 91 177 2.0 10.0 0.00 0.00 0.00 24 1016.5
20260902200511 91 171 4.0 10.0 0.00 0.00 0.00 23 1016.5
20260902200020 92 241 3.0 10.0 0.00 0.00 0.00 23 1016.5
20260902195514 91 235 2.0 10.0 0.00 0.00 0.00 25 1016.6
20260902195012 91 44 3.0 10.0 0.00 0.00 0.00 24 1016.7
20260902194513 91 247 2.0 11.0 0.00 0.00 0.00 24 1016.7
20260902194008 91 242 2.0 11.0 0.00 0.00 0.00 25 1016.8
20260902193508 91 212 1.0 9.0 0.00 0.00 0.00 26 1016.8
20260902193011 91 227 4.0 11.0 0.00 0.00 0.00 24 1016.9
20260902192510 91 283 3.0 11.0 0.00 0.00 0.00 25 1017.0
20260902192011 90 225 3.0 9.0 0.00 0.00 0.00 25 1017.1
20260902191535 90 69 4.0 9.0 0.00 0.00 0.00 25 1017.2
20260902191013 90 23 2.0 9.0 0.00 0.00 0.00 25 1017.2
20260902190514 90 241 2.0 9.0 0.00 0.00 0.00 25 1017.3
20260902190021 90 48 2.0 13.0 0.00 0.00 0.00 24 1017.4
20260902185512 91 50 3.0 13.0 0.00 0.00 0.00 25 1017.5
20260902185012 91 79 6.0 13.0 0.00 0.00 0.00 25 1017.6
20260902184527 91 262 2.0 9.0 0.00 0.00 0.00 26 1017.7
20260902184013 91 153 1.0 5.0 0.00 0.00 0.00 25 1017.8
20260902183514 90 171 2.0 7.0 0.00 0.00 0.00 26 1017.9
20260902183011 90 270 2.0 8.0 0.00 0.00 0.00 25 1018.0
20260902182508 89 39 2.0 13.0 0.00 0.00 0.00 26 1018.0
20260902182009 89 30 4.0 13.0 0.00 0.00 0.00 27 1018.1
20260902181514 89 65 2.0 7.0 0.00 0.00 0.00 27 1018.2
20260902181011 89 61 1.0 8.0 0.00 0.00 0.00 27 1018.4
20260902180511 88 246 3.0 8.0 0.00 0.00 0.00 27 1018.5
20260902180023 88 202 2.0 9.0 0.00 0.00 0.00 27 1018.6
20260902175512 88 192 3.0 10.0 0.00 0.00 0.00 28 1018.7
20260902175014 88 65 4.0 10.0 0.00 0.00 0.00 29 1018.6
20260902174526 88 335 3.0 10.0 0.00 0.00 0.00 31 1018.7
20260902174017 87 137 3.0 10.0 0.00 0.00 0.00 29 1018.9
20260902173514 87 338 2.0 10.0 0.00 0.00 0.00 30 1018.9
20260902173031 87 61 2.0 9.0 0.00 0.00 0.00 29 1018.9
20260902172513 87 229 2.0 12.0 0.00 0.00 0.00 28 1018.8
20260902172014 86 217 2.0 12.0 0.00 0.00 0.00 30 1018.9
20260902171513 86 250 2.0 8.0 0.00 0.00 0.00 30 1018.9
20260902171013 86 232 3.0 8.0 0.00 0.00 0.00 29 1018.9
20260902170511 86 239 1.0 8.0 0.00 0.00 0.00 30 1018.9
20260902170019 86 229 3.0 8.0 0.00 0.00 0.00 29 1019.1
20260902165513 86 179 1.0 7.0 0.00 0.00 0.00 28 1019.1
20260902165013 85 115 3.0 7.0 0.00 0.00 0.00 30 1019.2
20260902164523 86 179 3.0 7.0 0.00 0.00 0.00 32 1019.2
20260902164014 85 232 2.0 5.0 0.00 0.00 0.00 33 1019.2
20260902163513 85 229 1.0 8.0 0.00 0.00 0.00 34 1019.3
20260902163027 84 109 2.0 8.0 0.00 0.00 0.00 33 1019.4
20260902162517 84 84 2.0 6.0 0.00 0.00 0.00 32 1019.4
20260902162013 84 133 2.0 6.0 0.00 0.00 0.00 32 1019.4
20260902161529 84 183 2.0 8.0 0.00 0.00 0.00 31 1019.4
20260902161016 83 203 2.0 8.0 0.00 0.00 0.00 32 1019.4
20260902160514 83 241 3.0 8.0 0.00 0.00 0.00 31 1019.4
20260902160015 83 121 1.0 5.0 0.00 0.00 0.00 32 1019.4
20260902155518 82 164 2.0 5.0 0.00 0.00 0.00 32 1019.3
20260902155012 82 167 1.0 5.0 0.00 0.00 0.00 31 1019.3
20260902154538 81 125 1.0 4.0 0.00 0.00 0.00 33 1019.3
20260902154014 81 320 1.0 5.0 0.00 0.00 0.00 34 1019.2
20260902153515 80 62 0.0 5.0 0.00 0.00 0.00 37 1019.2
20260902153025 79 300 1.0 4.0 0.00 0.00 0.00 37 1019.2
20260902152515 79 189 1.0 6.0 0.00 0.00 0.00 37 1019.2
20260902152018 78 96 0.0 6.0 0.00 0.00 0.00 38 1019.1
20260902151536 78 46 1.0 6.0 0.00 0.00 0.00 38 1019.0
20260902151013 77 306 1.0 6.0 0.00 0.00 0.00 40 1019.1
20260902150518 76 71 0.0 7.0 0.00 0.00 0.00 41 1019.0
20260902150026 75 66 2.0 7.0 0.00 0.00 0.00 40 1019.0
20260902145517 75 108 1.0 5.0 0.00 0.00 0.00 42 1019.0
20260902145011 74 108 1.0 4.0 0.00 0.00 0.00 42 1019.0
20260902144518 73 104 1.0 4.0 0.00 0.00 0.00 42 1019.0
20260902144012 72 287 0.0 3.0 0.00 0.00 0.00 44 1019.1
20260902143515 71 285 0.0 5.0 0.00 0.00 0.00 46 1019.2
20260902143025 70 285 2.0 5.0 0.00 0.00 0.00 48 1019.2
20260902142518 70 284 2.0 5.0 0.00 0.00 0.00 50 1019.2
20260902142011 69 285 1.0 5.0 0.00 0.00 0.00 51 1019.0
20260902141534 69 284 2.0 5.0 0.00 0.00 0.00 52 1018.9
20260902141018 68 285 1.0 3.0 0.00 0.00 0.00 52 1019.0
20260902140514 68 282 0.0 2.0 0.00 0.00 0.00 53 1018.9
20260902140029 68 282 0.0 2.0 0.00 0.00 0.00 51 1018.8
20260902135516 67 279 0.0 2.0 0.00 0.00 0.00 54 1018.9
20260902135013 66 279 0.0 2.0 0.00 0.00 0.00 55 1018.9
20260902134530 64 279 0.0 3.0 0.00 0.00 0.00 56 1018.8
20260902134011 63 279 0.0 3.0 0.00 0.00 0.00 54 1018.8
20260902133515 62 275 1.0 3.0 0.00 0.00 0.00 56 1018.7
20260902133021 61 285 0.0 2.0 0.00 0.00 0.00 57 1018.7
20260902132513 60 270 0.0 3.0 0.00 0.00 0.00 60 1018.7
20260902132015 60 275 0.0 4.0 0.00 0.00 0.00 62 1018.8
20260902131527 59 282 0.0 4.0 0.00 0.00 0.00 65 1018.7
20260902131004 58 286 0.0 3.0 0.00 0.00 0.00 69 1018.7
20260902130505 57 287 1.0 3.0 0.00 0.00 0.00 71 1018.6
20260902130024 57 279 0.0 3.0 0.00 0.00 0.00 72 1018.5
20260902125506 57 270 0.0 2.0 0.00 0.00 0.00 73 1018.5
20260902125008 57 270 0.0 2.0 0.00 0.00 0.00 73 1018.6
20260902124513 57 270 0.0 3.0 0.00 0.00 0.00 73 1018.7
20260902124009 57 287 0.0 3.0 0.00 0.00 0.00 73 1018.6
20260902123508 56 270 0.0 2.0 0.00 0.00 0.00 74 1018.5
20260902123027 56 279 0.0 3.0 0.00 0.00 0.00 74 1018.4
20260902122511 56 270 0.0 3.0 0.00 0.00 0.00 74 1018.4
20260902122014 56 270 1.0 3.0 0.00 0.00 0.00 75 1018.5
20260902121526 56 281 0.0 2.0 0.00 0.00 0.00 75 1018.5
20260902121003 56 279 0.0 2.0 0.00 0.00 0.00 75 1018.4
20260902120504 56 287 1.0 3.0 0.00 0.00 0.00 75 1018.4
20260902120004 56 286 0.0 3.0 0.00 0.00 0.00 75 1018.5
20260902115503 57 285 0.0 2.0 0.00 0.00 0.00 74 1018.4
20260902115005 57 270 0.0 3.0 0.00 0.00 0.00 74 1018.3
20260902114512 57 270 0.0 3.0 0.00 0.00 0.00 74 1018.2
20260902114007 57 281 0.0 2.0 0.00 0.00 0.00 75 1018.2
20260902113510 57 270 0.0 5.0 0.00 0.00 0.00 75 1018.3
20260902113014 57 288 0.0 5.0 0.00 0.00 0.00 73 1018.3
20260902112509 57 288 0.0 0.0 0.00 0.00 0.00 72 1018.3
20260902112009 57 287 0.0 0.0 0.00 0.00 0.00 72 1018.2
20260902111525 58 283 0.0 0.0 0.00 0.00 0.00 72 1018.2
20260902111013 58 285 0.0 0.0 0.00 0.00 0.00 72 1018.2
20260902110512 58 270 0.0 0.0 0.00 0.00 0.00 72 1018.3
20260902110040 58 285 0.0 0.0 0.00 0.00 0.00 71 1018.2
20260902105503 58 286 0.0 0.0 0.00 0.00 0.00 70 1018.2
20260902105004 58 270 0.0 0.0 0.00 0.00 0.00 69 1018.2
20260902104506 59 270 0.0 0.0 0.00 0.00 0.00 69 1018.2
20260902104008 59 270 0.0 0.0 0.00 0.00 0.00 69 1018.2
20260902103508 59 270 0.0 0.0 0.00 0.00 0.00 69 1018.0
20260902103009 59 270 0.0 0.0 0.00 0.00 0.00 68 1018.0
20260902102509 59 270 0.0 0.0 0.00 0.00 0.00 67 1018.0
20260902102010 60 270 0.0 0.0 0.00 0.00 0.00 66 1018.1
20260902101513 60 270 0.0 0.0 0.00 0.00 0.00 66 1018.1
20260902101009 60 270 0.0 0.0 0.00 0.00 0.00 66 1018.2
20260902100513 60 270 0.0 0.0 0.00 0.00 0.00 64 1018.2
20260902100024 61 270 0.0 0.0 0.00 0.00 0.00 63 1018.2
20260902095514 61 270 0.0 0.0 0.00 0.00 0.00 62 1018.2
20260902095016 61 270 0.0 0.0 0.00 0.00 0.00 60 1018.2
20260902094530 61 270 0.0 0.0 0.00 0.00 0.00 60 1018.2
20260902094004 62 270 0.0 0.0 0.00 0.00 0.00 58 1018.2
20260902093504 62 270 0.0 0.0 0.00 0.00 0.00 59 1018.2
20260902093012 62 270 0.0 0.0 0.00 0.00 0.00 58 1018.2
20260902092504 62 270 0.0 0.0 0.00 0.00 0.00 57 1018.2
20260902092007 63 270 0.0 0.0 0.00 0.00 0.00 55 1018.2
20260902091515 63 270 0.0 0.0 0.00 0.00 0.00 54 1018.2
20260902091012 63 282 0.0 1.0 0.00 0.00 0.00 53 1018.2
20260902090513 63 282 0.0 1.0 0.00 0.00 0.00 53 1018.3
20260902090018 64 282 0.0 1.0 0.00 0.00 0.00 53 1018.2
20260902085511 64 282 0.0 1.0 0.00 0.00 0.00 52 1018.2
20260902085011 64 282 0.0 1.0 0.00 0.00 0.00 51 1018.2
20260902084528 64 282 0.0 2.0 0.00 0.00 0.00 52 1018.1
20260902084015 65 282 1.0 4.0 0.00 0.00 0.00 50 1018.1
20260902083516 65 275 1.0 4.0 0.00 0.00 0.00 48 1018.0
20260902083036 65 275 1.0 3.0 0.00 0.00 0.00 49 1018.0
20260902082503 65 279 0.0 3.0 0.00 0.00 0.00 49 1018.0
20260902082005 65 279 1.0 5.0 0.00 0.00 0.00 50 1018.0
20260902081511 65 279 2.0 5.0 0.00 0.00 0.00 50 1018.1
20260902081006 65 279 1.0 4.0 0.00 0.00 0.00 50 1018.2
20260902080509 65 287 1.0 4.0 0.00 0.00 0.00 50 1018.2
20260902080023 65 281 0.0 4.0 0.00 0.00 0.00 50 1018.2
20260902075511 65 279 0.0 5.0 0.00 0.00 0.00 49 1018.2
20260902075014 65 287 2.0 5.0 0.00 0.00 0.00 49 1018.2
20260902074524 66 279 2.0 5.0 0.00 0.00 0.00 50 1018.2
20260902074016 66 279 1.0 4.0 0.00 0.00 0.00 50 1018.2
20260902073516 66 279 0.0 2.0 0.00 0.00 0.00 51 1018.2
20260902073031 66 279 1.0 4.0 0.00 0.00 0.00 50 1018.2
20260902072515 66 287 0.0 4.0 0.00 0.00 0.00 50 1018.2
20260902072014 66 279 2.0 4.0 0.00 0.00 0.00 49 1018.4
20260902071507 66 279 1.0 3.0 0.00 0.00 0.00 49 1018.5
20260902071004 66 279 0.0 1.0 0.00 0.00 0.00 49 1018.4
20260902070507 66 282 0.0 3.0 0.00 0.00 0.00 48 1018.4
20260902070013 66 284 0.0 3.0 0.00 0.00 0.00 49 1018.4
20260902065508 67 285 0.0 3.0 0.00 0.00 0.00 48 1018.4
20260902065012 67 286 1.0 3.0 0.00 0.00 0.00 48 1018.5
20260902064521 67 270 0.0 4.0 0.00 0.00 0.00 48 1018.5
20260902064013 67 270 2.0 4.0 0.00 0.00 0.00 48 1018.5
20260902063512 67 270 0.0 6.0 0.00 0.00 0.00 48 1018.5
20260902063025 67 270 3.0 7.0 0.00 0.00 0.00 47 1018.4
20260902062516 68 283 3.0 7.0 0.00 0.00 0.00 46 1018.5
20260902062014 68 282 3.0 8.0 0.00 0.00 0.00 47 1018.5
20260902061529 67 285 4.0 8.0 0.00 0.00 0.00 46 1018.5
20260902061028 67 270 2.0 7.0 0.00 0.00 0.00 47 1018.2
20260902060515 67 282 3.0 7.0 0.00 0.00 0.00 47 1018.2
20260902060008 68 281 3.0 7.0 0.00 0.00 0.00 47 1018.2
20260902055508 68 281 3.0 8.0 0.00 0.00 0.00 47 1018.3
20260902055010 68 281 4.0 8.0 0.00 0.00 0.00 47 1018.4
20260902054522 68 281 3.0 8.0 0.00 0.00 0.00 47 1018.4
20260902054009 68 270 3.0 9.0 0.00 0.00 0.00 47 1018.4
20260902053512 68 270 4.0 9.0 0.00 0.00 0.00 47 1018.4
20260902053019 68 281 3.0 10.0 0.00 0.00 0.00 47 1018.4
20260902052514 68 281 5.0 10.0 0.00 0.00 0.00 47 1018.4
20260902052014 68 279 4.0 8.0 0.00 0.00 0.00 47 1018.4
20260902051528 68 270 3.0 8.0 0.00 0.00 0.00 47 1018.4
20260902051017 67 270 4.0 7.0 0.00 0.00 0.00 48 1018.4
20260902050520 67 281 3.0 5.0 0.00 0.00 0.00 48 1018.4
20260902050029 67 281 1.0 5.0 0.00 0.00 0.00 49 1018.4
20260902045517 68 281 1.0 5.0 0.00 0.00 0.00 49 1018.4
20260902045004 68 280 2.0 4.0 0.00 0.00 0.00 50 1018.4
20260902044513 68 270 2.0 5.0 0.00 0.00 0.00 50 1018.5
20260902044008 68 270 2.0 5.0 0.00 0.00 0.00 50 1018.4
20260902043510 68 287 2.0 4.0 0.00 0.00 0.00 50 1018.5
20260902043017 68 289 1.0 4.0 0.00 0.00 0.00 52 1018.5